UAL818 SAEZ-KIAH

Flight info

Callsign UAL818
Flight time N/A
Altitude 34000
Route BIVAM1E BIVAM UW8 ERE UT680 TUC UL550 ALDAX DCT ILMAR UM542 OKASO/N0496F360 UM542 ARNEL DCT LIXAS UZ512 RADIM DCT URPOS DCT APMEL/N0486F380 DCT DUTNA L208 PEGLG LINKK1
Aircraft B77W/H-SDE1E2E3FGHIJ2J3J4J5M1RWXY/LB1D1

Departure

Time 2026-05-04 18:13
Airport Ezeiza International Airport - Ministro Pistarini (SAEZ)

Arrival

Time N/A
Airport George Bush Intercontinental Airport (KIAH)
Time Latitude Longitude Altitude Speed Heading
2026-05-04 17:44 -34.81608 -58.53984 67 ft 0 kts 318°
2026-05-04 18:01 -34.81611 -58.53980 67 ft 2 kts 318°
2026-05-04 18:01 -34.81624 -58.53967 67 ft 2 kts 321°
2026-05-04 18:01 -34.81637 -58.53955 67 ft 2 kts 324°
2026-05-04 18:02 -34.81665 -58.53934 67 ft 2 kts 332°
2026-05-04 18:02 -34.81679 -58.53925 67 ft 2 kts 339°
2026-05-04 18:02 -34.81695 -58.53919 67 ft 2 kts 349°
2026-05-04 18:02 -34.81711 -58.53917 67 ft 2 kts
2026-05-04 18:03 -34.81727 -58.53921 67 ft 2 kts 25°
2026-05-04 18:03 -34.81741 -58.53931 67 ft 2 kts 49°
2026-05-04 18:03 -34.81745 -58.53937 67 ft 0 kts 58°
2026-05-04 18:05 -34.81742 -58.53931 67 ft 5 kts 58°
2026-05-04 18:05 -34.81710 -58.53832 76 ft 15 kts 86°
2026-05-04 18:05 -34.81748 -58.53730 71 ft 14 kts 140°
2026-05-04 18:05 -34.81830 -58.53674 75 ft 14 kts 153°
2026-05-04 18:06 -34.81930 -58.53491 97 ft 14 kts 104°
2026-05-04 18:06 -34.81959 -58.53352 78 ft 20 kts 103°
2026-05-04 18:06 -34.81989 -58.53201 72 ft 17 kts 103°
2026-05-04 18:07 -34.81991 -58.53189 73 ft 0 kts 103°
2026-05-04 18:08 -34.81992 -58.53185 78 ft 2 kts 103°
2026-05-04 18:08 -34.82001 -58.53140 71 ft 9 kts 103°
2026-05-04 18:09 -34.82048 -58.52910 72 ft 18 kts 104°
2026-05-04 18:09 -34.82115 -58.52577 74 ft 21 kts 104°
2026-05-04 18:10 -34.82148 -58.52408 74 ft 21 kts 103°
2026-05-04 18:10 -34.82181 -58.52239 73 ft 21 kts 103°
2026-05-04 18:10 -34.82214 -58.52069 74 ft 21 kts 103°
2026-05-04 18:10 -34.82246 -58.51914 76 ft 17 kts 104°
2026-05-04 18:11 -34.82273 -58.51812 67 ft 12 kts 128°
2026-05-04 18:11 -34.82354 -58.51793 69 ft 12 kts 185°
2026-05-04 18:11 -34.82438 -58.51812 70 ft 12 kts 194°
2026-05-04 18:11 -34.82510 -58.51861 68 ft 12 kts 237°
2026-05-04 18:12 -34.82509 -58.51975 70 ft 23 kts 280°
2026-05-04 18:12 -34.82422 -58.52473 71 ft 97 kts 282°
2026-05-04 18:12 -34.82228 -58.53549 71 ft 161 kts 282°
2026-05-04 18:12 -34.81973 -58.55052 315 ft 187 kts 283°
2026-05-04 18:13 -34.81709 -58.56670 682 ft 206 kts 282°
2026-05-04 18:13 -34.81430 -58.58427 1203 ft 212 kts 283°
2026-05-04 18:13 -34.81284 -58.61945 2165 ft 233 kts 243°
2026-05-04 18:14 -34.82421 -58.63428 2525 ft 249 kts 222°
2026-05-04 18:14 -34.83595 -58.64976 2949 ft 251 kts 248°
2026-05-04 18:14 -34.83838 -58.67033 3541 ft 249 kts 285°
2026-05-04 18:15 -34.81699 -58.70181 4888 ft 251 kts 326°
2026-05-04 18:15 -34.78634 -58.72275 6312 ft 257 kts 330°
2026-05-04 18:15 -34.77047 -58.73298 6959 ft 261 kts 330°
2026-05-04 18:16 -34.75431 -58.74335 7570 ft 265 kts 330°
2026-05-04 18:16 -34.73781 -58.75397 8155 ft 271 kts 329°
2026-05-04 18:16 -34.72107 -58.76479 8731 ft 278 kts 330°
2026-05-04 18:17 -34.68766 -58.78644 9915 ft 286 kts 329°
2026-05-04 18:17 -34.66986 -58.79802 10337 ft 298 kts 329°
2026-05-04 18:17 -34.63091 -58.82350 10662 ft 342 kts 329°
2026-05-04 18:18 -34.60934 -58.83760 10903 ft 361 kts 329°
2026-05-04 18:18 -34.58688 -58.85225 11428 ft 370 kts 328°
2026-05-04 18:18 -34.56408 -58.86712 12157 ft 374 kts 327°
2026-05-04 18:18 -34.54116 -58.88205 13042 ft 374 kts 327°
2026-05-04 18:19 -34.49502 -58.91212 14533 ft 380 kts 326°
2026-05-04 18:19 -34.47155 -58.92743 15173 ft 385 kts 326°
2026-05-04 18:19 -34.44811 -58.94270 15841 ft 390 kts 326°
2026-05-04 18:20 -34.42414 -58.95830 16517 ft 394 kts 326°
2026-05-04 18:20 -34.39985 -58.97411 17170 ft 398 kts 326°
2026-05-04 18:20 -34.37530 -58.99007 17811 ft 403 kts 325°
2026-05-04 18:20 -34.35159 -59.00548 18386 ft 407 kts 325°
2026-05-04 18:21 -34.32652 -59.02177 18951 ft 411 kts 325°
2026-05-04 18:21 -34.30118 -59.03821 19536 ft 415 kts 325°
2026-05-04 18:21 -34.27564 -59.05476 20104 ft 418 kts 325°
2026-05-04 18:21 -34.24988 -59.07145 20675 ft 422 kts 325°
2026-05-04 18:22 -34.22386 -59.08829 21188 ft 426 kts 325°
2026-05-04 18:22 -34.19793 -59.10507 21673 ft 431 kts 325°
2026-05-04 18:22 -34.17138 -59.12224 22217 ft 434 kts 325°
2026-05-04 18:22 -34.14466 -59.13950 22749 ft 437 kts 325°
2026-05-04 18:23 -34.11776 -59.15686 23276 ft 441 kts 325°
2026-05-04 18:23 -34.09059 -59.17439 23732 ft 444 kts 325°
2026-05-04 18:23 -34.06326 -59.19201 24153 ft 447 kts 325°
2026-05-04 18:23 -34.03571 -59.20975 24558 ft 450 kts 325°
2026-05-04 18:24 -34.00799 -59.22760 24988 ft 453 kts 325°
2026-05-04 18:24 -33.98028 -59.24541 25407 ft 456 kts 325°
2026-05-04 18:24 -33.95255 -59.26323 25800 ft 459 kts 325°
2026-05-04 18:24 -33.92389 -59.28164 26227 ft 462 kts 325°
2026-05-04 18:25 -33.89584 -59.29964 26627 ft 465 kts 325°
2026-05-04 18:25 -33.86722 -59.31800 27015 ft 468 kts 325°
2026-05-04 18:25 -33.83840 -59.33647 27390 ft 470 kts 325°
2026-05-04 18:25 -33.80941 -59.35503 27766 ft 473 kts 325°
2026-05-04 18:26 -33.78029 -59.37365 28128 ft 476 kts 325°
2026-05-04 18:26 -33.75100 -59.39238 28481 ft 478 kts 325°
2026-05-04 18:26 -33.72184 -59.41100 28815 ft 481 kts 325°
2026-05-04 18:26 -33.69255 -59.42970 29138 ft 483 kts 325°
2026-05-04 18:27 -33.66287 -59.44863 29446 ft 486 kts 325°
2026-05-04 18:27 -33.63296 -59.46769 29685 ft 489 kts 325°
2026-05-04 18:27 -33.60332 -59.48656 30005 ft 490 kts 325°
2026-05-04 18:27 -33.57325 -59.50567 30385 ft 488 kts 325°
2026-05-04 18:28 -33.54345 -59.52457 30821 ft 485 kts 325°
2026-05-04 18:28 -33.51447 -59.54295 31239 ft 482 kts 324°
2026-05-04 18:28 -33.48486 -59.56173 31602 ft 481 kts 324°
2026-05-04 18:28 -33.45532 -59.58046 31920 ft 480 kts 324°
2026-05-04 18:29 -33.42594 -59.59909 32258 ft 479 kts 324°
2026-05-04 18:29 -33.39668 -59.61763 32648 ft 476 kts 324°
2026-05-04 18:29 -33.36786 -59.63585 33044 ft 473 kts 324°
2026-05-04 18:29 -33.34067 -59.65304 33368 ft 472 kts 324°
2026-05-04 18:30 -33.28280 -59.68962 33859 ft 473 kts 324°
2026-05-04 18:30 -33.25363 -59.70808 33867 ft 475 kts 324°
2026-05-04 18:31 -33.19537 -59.74480 33907 ft 471 kts 324°
2026-05-04 18:31 -33.13753 -59.78115 33927 ft 468 kts 324°
2026-05-04 18:32 -33.08045 -59.81702 33924 ft 467 kts 324°
2026-05-04 18:32 -33.02301 -59.85308 33915 ft 467 kts 324°
2026-05-04 18:33 -32.96561 -59.88908 33917 ft 468 kts 324°
2026-05-04 18:33 -32.90778 -59.92526 33919 ft 470 kts 324°
2026-05-04 18:34 -32.85021 -59.96122 33898 ft 471 kts 324°
2026-05-04 18:34 -32.79298 -59.99691 33913 ft 472 kts 324°
2026-05-04 18:35 -32.73596 -60.03242 33916 ft 472 kts 324°
2026-05-04 18:35 -32.67775 -60.06862 33911 ft 472 kts 324°
2026-05-04 18:36 -32.61957 -60.10475 33903 ft 472 kts 324°
2026-05-04 18:36 -32.56176 -60.14059 33910 ft 471 kts 324°
2026-05-04 18:37 -32.50368 -60.17655 33913 ft 471 kts 325°
2026-05-04 18:37 -32.44568 -60.21241 33898 ft 469 kts 325°
2026-05-04 18:38 -32.38784 -60.24811 33903 ft 468 kts 325°
2026-05-04 18:38 -32.33013 -60.28369 33908 ft 468 kts 325°
2026-05-04 18:39 -32.27307 -60.31882 33914 ft 467 kts 325°
2026-05-04 18:39 -32.21543 -60.35425 33905 ft 467 kts 325°
2026-05-04 18:40 -32.15769 -60.38970 33912 ft 467 kts 325°
2026-05-04 18:40 -32.10032 -60.42487 33909 ft 468 kts 325°
2026-05-04 18:41 -32.04254 -60.46024 33888 ft 468 kts 326°
2026-05-04 18:41 -31.98697 -60.49420 33901 ft 468 kts 326°
2026-05-04 18:42 -31.92988 -60.52903 33908 ft 467 kts 326°
2026-05-04 18:42 -31.87286 -60.56379 33906 ft 466 kts 326°
2026-05-04 18:43 -31.81657 -60.59805 33909 ft 466 kts 326°
2026-05-04 18:43 -31.75958 -60.63269 33903 ft 465 kts 326°
2026-05-04 18:44 -31.70214 -60.66755 33914 ft 465 kts 326°
2026-05-04 18:44 -31.64471 -60.70236 33912 ft 464 kts 326°
2026-05-04 18:45 -31.58767 -60.73689 33887 ft 464 kts 326°
2026-05-04 18:45 -31.53023 -60.77161 33898 ft 464 kts 326°
2026-05-04 18:46 -31.47280 -60.80628 33890 ft 465 kts 326°
2026-05-04 18:46 -31.41522 -60.84099 33880 ft 465 kts 326°
2026-05-04 18:47 -31.35802 -60.87542 33889 ft 466 kts 326°
2026-05-04 18:47 -31.30033 -60.91010 33894 ft 467 kts 326°
2026-05-04 18:48 -31.24252 -60.94480 33891 ft 467 kts 326°
2026-05-04 18:48 -31.18464 -60.97949 33879 ft 468 kts 326°
2026-05-04 18:49 -31.12828 -61.01324 33887 ft 468 kts 326°
2026-05-04 18:49 -31.07025 -61.04794 33892 ft 469 kts 326°
2026-05-04 18:50 -31.01292 -61.08405 33878 ft 465 kts 321°
2026-05-04 18:50 -30.95892 -61.12472 33879 ft 464 kts 320°
2026-05-04 18:51 -30.90481 -61.16579 33884 ft 464 kts 320°
2026-05-04 18:51 -30.85081 -61.20629 33882 ft 465 kts 321°
2026-05-04 18:52 -30.79622 -61.24689 33854 ft 465 kts 321°
2026-05-04 18:52 -30.74166 -61.28737 33874 ft 465 kts 321°
2026-05-04 18:53 -30.68714 -61.32777 33884 ft 465 kts 321°
2026-05-04 18:53 -30.63295 -61.36789 33886 ft 465 kts 320°
2026-05-04 18:54 -30.57848 -61.40816 33876 ft 464 kts 320°
2026-05-04 18:54 -30.52404 -61.44835 33876 ft 463 kts 320°
2026-05-04 18:55 -30.46971 -61.48842 33873 ft 463 kts 320°
2026-05-04 18:55 -30.38863 -61.54811 33877 ft 462 kts 320°
2026-05-04 18:56 -30.33435 -61.58800 33864 ft 462 kts 320°
2026-05-04 18:56 -30.28007 -61.62784 33869 ft 462 kts 320°
2026-05-04 18:57 -30.22577 -61.66765 33872 ft 462 kts 320°
2026-05-04 18:57 -30.17176 -61.70719 33868 ft 463 kts 320°
2026-05-04 18:58 -30.11735 -61.74696 33864 ft 463 kts 320°
2026-05-04 18:58 -30.06287 -61.78674 33871 ft 463 kts 320°
2026-05-04 18:59 -30.00838 -61.82648 33867 ft 464 kts 320°
2026-05-04 18:59 -29.95433 -61.86585 33872 ft 464 kts 320°
2026-05-04 19:00 -29.89979 -61.90552 33868 ft 463 kts 320°
2026-05-04 19:00 -29.84906 -61.94987 33871 ft 452 kts 309°
2026-05-04 19:01 -29.80432 -62.00028 33872 ft 452 kts 309°
2026-05-04 19:01 -29.75976 -62.04915 33862 ft 452 kts 310°
2026-05-04 19:02 -29.71409 -62.09890 33853 ft 452 kts 310°
2026-05-04 19:02 -29.66848 -62.14860 33857 ft 452 kts 310°
2026-05-04 19:03 -29.62288 -62.19828 33857 ft 452 kts 310°
2026-05-04 19:03 -29.57760 -62.24757 33861 ft 451 kts 310°
2026-05-04 19:04 -29.53198 -62.29716 33835 ft 451 kts 310°
2026-05-04 19:04 -29.48644 -62.34660 33849 ft 450 kts 310°
2026-05-04 19:05 -29.44091 -62.39596 33857 ft 450 kts 310°
2026-05-04 19:05 -29.39569 -62.44493 33856 ft 450 kts 310°
2026-05-04 19:06 -29.35017 -62.49416 33852 ft 450 kts 310°
2026-05-04 19:06 -29.30465 -62.54333 33847 ft 449 kts 310°
2026-05-04 19:07 -29.25915 -62.59241 33840 ft 449 kts 310°
2026-05-04 19:07 -29.21391 -62.64115 33848 ft 449 kts 310°
2026-05-04 19:08 -29.16834 -62.69017 33850 ft 450 kts 310°
2026-05-04 19:08 -29.12272 -62.73920 33853 ft 450 kts 310°
2026-05-04 19:09 -29.07708 -62.78819 33841 ft 450 kts 311°
2026-05-04 19:09 -29.03136 -62.83721 33848 ft 451 kts 311°
2026-05-04 19:10 -28.98600 -62.88577 33830 ft 452 kts 311°
2026-05-04 19:10 -28.94011 -62.93479 33841 ft 452 kts 311°
2026-05-04 19:11 -28.89413 -62.98380 33824 ft 452 kts 311°
2026-05-04 19:11 -28.84901 -63.03187 33838 ft 452 kts 311°
2026-05-04 19:12 -28.78029 -63.10498 33839 ft 453 kts 311°
2026-05-04 19:13 -28.73421 -63.15394 33830 ft 453 kts 311°
2026-05-04 19:13 -28.68812 -63.20284 33820 ft 453 kts 311°
2026-05-04 19:14 -28.64203 -63.25168 33835 ft 453 kts 311°
2026-05-04 19:14 -28.59619 -63.30019 33836 ft 453 kts 311°
2026-05-04 19:15 -28.54999 -63.34904 33837 ft 453 kts 311°
2026-05-04 19:15 -28.50375 -63.39785 33832 ft 454 kts 311°
2026-05-04 19:16 -28.45747 -63.44665 33831 ft 454 kts 311°
2026-05-04 19:16 -28.41145 -63.49510 33834 ft 454 kts 311°
2026-05-04 19:17 -28.36514 -63.54381 33827 ft 454 kts 311°
2026-05-04 19:17 -28.31874 -63.59255 33834 ft 454 kts 311°
2026-05-04 19:18 -28.27235 -63.64122 33832 ft 454 kts 311°
2026-05-04 19:18 -28.22628 -63.68950 33823 ft 454 kts 311°
2026-05-04 19:19 -28.17987 -63.73807 33831 ft 454 kts 311°
2026-05-04 19:19 -28.13345 -63.78661 33828 ft 454 kts 312°
2026-05-04 19:20 -28.08699 -63.83512 33828 ft 454 kts 312°
2026-05-04 19:20 -28.04083 -63.88330 33804 ft 454 kts 312°
2026-05-04 19:21 -27.99454 -63.93170 33826 ft 454 kts 312°
2026-05-04 19:21 -27.94811 -63.98022 33829 ft 455 kts 312°
2026-05-04 19:22 -27.90248 -64.02784 33824 ft 455 kts 312°
2026-05-04 19:22 -27.85600 -64.07628 33833 ft 455 kts 312°
2026-05-04 19:23 -27.80971 -64.12445 33806 ft 456 kts 312°
2026-05-04 19:23 -27.76308 -64.17293 33826 ft 456 kts 312°
2026-05-04 19:24 -27.71636 -64.22146 33831 ft 457 kts 312°
2026-05-04 19:24 -27.66953 -64.27003 33836 ft 457 kts 312°
2026-05-04 19:25 -27.62298 -64.31824 33827 ft 458 kts 312°
2026-05-04 19:25 -27.57608 -64.36675 33822 ft 458 kts 312°
2026-05-04 19:26 -27.52914 -64.41527 33828 ft 458 kts 312°
2026-05-04 19:26 -27.48214 -64.46378 33829 ft 458 kts 312°
2026-05-04 19:27 -27.43544 -64.51192 33827 ft 458 kts 312°
2026-05-04 19:27 -27.38844 -64.56033 33830 ft 458 kts 312°
2026-05-04 19:28 -27.34144 -64.60865 33824 ft 457 kts 312°
2026-05-04 19:28 -27.29419 -64.65664 33828 ft 458 kts 312°
2026-05-04 19:29 -27.24717 -64.70412 33829 ft 458 kts 312°
2026-05-04 19:29 -27.19982 -64.75193 33830 ft 458 kts 312°
2026-05-04 19:30 -27.15243 -64.79979 33829 ft 458 kts 312°
2026-05-04 19:30 -27.10500 -64.84764 33827 ft 458 kts 312°
2026-05-04 19:31 -27.05783 -64.89518 33829 ft 459 kts 312°
2026-05-04 19:31 -27.01023 -64.94310 33855 ft 460 kts 312°
2026-05-04 19:32 -26.96271 -64.99087 33868 ft 460 kts 312°
2026-05-04 19:32 -26.91592 -65.03786 33831 ft 460 kts 312°
2026-05-04 19:33 -26.86827 -65.08566 33853 ft 460 kts 312°
2026-05-04 19:33 -26.82053 -65.13269 33856 ft 461 kts 314°
2026-05-04 19:34 -26.77059 -65.17804 33860 ft 463 kts 315°
2026-05-04 19:34 -26.72041 -65.22310 33860 ft 462 kts 315°
2026-05-04 19:35 -26.67081 -65.26808 33838 ft 462 kts 314°
2026-05-04 19:35 -26.62109 -65.31340 33850 ft 461 kts 314°
2026-05-04 19:36 -26.57144 -65.35867 33852 ft 461 kts 315°
2026-05-04 19:36 -26.52178 -65.40387 33872 ft 460 kts 315°
2026-05-04 19:37 -26.47210 -65.44902 33866 ft 460 kts 315°
2026-05-04 19:37 -26.42278 -65.49380 33871 ft 460 kts 315°
2026-05-04 19:38 -26.37311 -65.53884 33872 ft 460 kts 315°
2026-05-04 19:38 -26.32334 -65.58391 33876 ft 461 kts 315°
2026-05-04 19:39 -26.27362 -65.62891 33851 ft 460 kts 315°
2026-05-04 19:39 -26.22448 -65.67343 33872 ft 456 kts 315°
2026-05-04 19:40 -26.17513 -65.71786 33869 ft 457 kts 315°
2026-05-04 19:40 -26.12562 -65.76253 33849 ft 459 kts 315°
2026-05-04 19:41 -26.07598 -65.80718 33844 ft 459 kts 315°
2026-05-04 19:41 -26.02663 -65.85152 33848 ft 459 kts 315°
2026-05-04 19:42 -25.97715 -65.89593 33854 ft 458 kts 315°
2026-05-04 19:42 -25.92756 -65.94042 33863 ft 458 kts 315°
2026-05-04 19:43 -25.87796 -65.98486 33845 ft 458 kts 315°
2026-05-04 19:43 -25.82980 -66.02798 33840 ft 456 kts 315°
2026-05-04 19:44 -25.78041 -66.07214 33840 ft 455 kts 315°
2026-05-04 19:44 -25.73111 -66.11616 33831 ft 455 kts 315°
2026-05-04 19:45 -25.68183 -66.16013 33832 ft 455 kts 315°
2026-05-04 19:45 -25.63272 -66.20392 33827 ft 457 kts 315°
2026-05-04 19:46 -25.58315 -66.24811 33828 ft 458 kts 315°
2026-05-04 19:46 -25.53342 -66.29234 33854 ft 458 kts 315°
2026-05-04 19:47 -25.48362 -66.33656 33844 ft 459 kts 315°
2026-05-04 19:47 -25.43377 -66.38082 33908 ft 460 kts 315°
2026-05-04 19:48 -25.38392 -66.42496 33892 ft 463 kts 315°
2026-05-04 19:48 -25.33355 -66.46960 33940 ft 466 kts 315°
2026-05-04 19:49 -25.29124 -66.50693 33920 ft 468 kts 315°
2026-05-04 19:49 -25.23287 -66.55866 33998 ft 458 kts 315°
2026-05-04 19:50 -25.18321 -66.60270 34015 ft 458 kts 315°
2026-05-04 19:50 -25.14158 -66.63945 34064 ft 463 kts 315°
2026-05-04 19:51 -25.08240 -66.69150 34066 ft 467 kts 315°
2026-05-04 19:51 -25.03195 -66.73588 34057 ft 467 kts 315°
2026-05-04 19:52 -24.98140 -66.78027 34060 ft 465 kts 315°
2026-05-04 19:52 -24.93951 -66.81703 34058 ft 461 kts 315°
2026-05-04 19:53 -24.88951 -66.86094 34055 ft 458 kts 315°
2026-05-04 19:53 -24.83168 -66.91154 34044 ft 457 kts 315°
2026-05-04 19:54 -24.79037 -66.94779 34034 ft 457 kts 315°
2026-05-04 19:54 -24.74059 -66.99135 34031 ft 458 kts 315°
2026-05-04 19:55 -24.69166 -67.03409 34020 ft 458 kts 315°
2026-05-04 19:55 -24.63365 -67.08471 34015 ft 458 kts 315°
2026-05-04 19:56 -24.59176 -67.12124 34019 ft 459 kts 315°
2026-05-04 19:56 -24.54205 -67.16453 34000 ft 460 kts 315°
2026-05-04 19:57 -24.49191 -67.20817 34002 ft 460 kts 315°
2026-05-04 19:57 -24.44174 -67.25180 34015 ft 460 kts 315°
2026-05-04 19:58 -24.39155 -67.29537 33983 ft 460 kts 315°
2026-05-04 19:58 -24.34176 -67.33852 34023 ft 458 kts 315°
2026-05-04 19:59 -24.29175 -67.38186 34024 ft 457 kts 315°
2026-05-04 19:59 -24.24184 -67.42507 34051 ft 456 kts 315°
2026-05-04 20:00 -24.19193 -67.46823 34043 ft 457 kts 316°
2026-05-04 20:00 -24.13410 -67.51823 34083 ft 456 kts 316°
2026-05-04 20:01 -24.09260 -67.55384 34101 ft 456 kts 316°
2026-05-04 20:01 -24.04225 -67.59625 34116 ft 457 kts 316°
2026-05-04 20:02 -23.99199 -67.63844 34132 ft 455 kts 316°
2026-05-04 20:02 -23.94210 -67.68039 34072 ft 456 kts 316°
2026-05-04 20:03 -23.89183 -67.72271 34097 ft 456 kts 317°
2026-05-04 20:03 -23.84147 -67.76501 34113 ft 457 kts 317°
2026-05-04 20:04 -23.79090 -67.80748 34048 ft 459 kts 317°
2026-05-04 20:04 -23.74047 -67.84977 34043 ft 461 kts 317°
2026-05-04 20:05 -23.68962 -67.89236 34024 ft 461 kts 317°
2026-05-04 20:05 -23.63881 -67.93489 34020 ft 460 kts 317°
2026-05-04 20:06 -23.58805 -67.97734 33940 ft 459 kts 317°
2026-05-04 20:06 -23.53836 -68.01884 33935 ft 459 kts 317°
2026-05-04 20:07 -23.48808 -68.06081 33935 ft 458 kts 317°
2026-05-04 20:07 -23.43751 -68.10297 33934 ft 457 kts 317°
2026-05-04 20:08 -23.38700 -68.14505 33917 ft 457 kts 317°
2026-05-04 20:08 -23.33649 -68.18708 33929 ft 457 kts 317°
2026-05-04 20:09 -23.28623 -68.22886 33878 ft 458 kts 317°
2026-05-04 20:09 -23.23563 -68.27089 33869 ft 458 kts 317°
2026-05-04 20:10 -23.18496 -68.31292 33876 ft 458 kts 317°
2026-05-04 20:10 -23.13430 -68.35492 33851 ft 458 kts 318°
2026-05-04 20:11 -23.08399 -68.39661 33887 ft 458 kts 318°
2026-05-04 20:11 -23.03322 -68.43860 33878 ft 459 kts 318°
2026-05-04 20:12 -22.98249 -68.48053 33906 ft 459 kts 318°
2026-05-04 20:12 -22.93166 -68.52253 33912 ft 459 kts 318°
2026-05-04 20:13 -22.88084 -68.56444 33910 ft 459 kts 318°
2026-05-04 20:13 -22.83030 -68.60612 33933 ft 460 kts 319°
2026-05-04 20:14 -22.77938 -68.64807 33934 ft 460 kts 319°
2026-05-04 20:14 -22.72850 -68.68996 34002 ft 459 kts 319°
2026-05-04 20:15 -22.67762 -68.73181 34080 ft 459 kts 319°
2026-05-04 20:15 -22.62715 -68.77329 34161 ft 458 kts 319°
2026-05-04 20:16 -22.57640 -68.81496 34233 ft 458 kts 319°
2026-05-04 20:16 -22.52560 -68.85664 34272 ft 459 kts 319°
2026-05-04 20:17 -22.47502 -68.89885 33932 ft 459 kts 317°
2026-05-04 20:17 -22.42608 -68.94301 33929 ft 458 kts 316°
2026-05-04 20:18 -22.37766 -68.98717 33926 ft 458 kts 316°
2026-05-04 20:18 -22.32961 -69.03054 33927 ft 459 kts 316°